Theta_e
318 319 318 318 318 318 317 317 318 318 318 317 315 314 315 316 316 312 309 312 317 317 317 316 317 319 318 318 314 316 313 315 315 320 318 318 317 319 330 328 329 329 329 330 328 332 333 331 331 333 328 331 330 330
317 316 316 316 316 316 317 317 317 318 318 316 314 314 313 310 310 310 309 309 308 309 311 310 309 309 309 310 314 314 314 314 316 315 314 315 319 327 327 331 328 331 327 329 329 329 325 330 330 331 330 330 330 332
319 320 317 316 316 316 316 317 316 317 317 317 314 314 309 310 309 310 309 308 308 309 310 312 312 315 316 316 316 314 316 317 317 317 313 313 320 325 331 329 331 329 328 329 330 327 329 330 330 330 330 330 331 331
321 321 321 318 317 317 316 316 316 316 317 317 314 309 311 312 311 312 313 309 310 311 312 313 315 317 317 319 319 317 316 316 317 316 314 309 315 324 326 325 328 327 328 328 328 327 329 330 331 330 331 332 332 333
322 322 323 322 318 317 317 316 316 316 317 317 315 309 312 311 313 313 316 316 314 314 312 314 313 315 320 321 320 320 316 316 316 315 310 310 312 316 317 322 327 329 327 328 329 327 328 329 330 331 332 332 332 332
321 322 321 323 321 319 317 317 317 317 317 317 313 310 312 312 313 311 317 315 315 313 313 311 313 316 320 320 321 320 318 315 316 316 312 315 317 317 314 315 318 321 326 328 328 327 330 330 330 331 331 333 334 333
323 322 321 321 323 322 321 318 317 317 318 315 309 312 313 316 313 315 317 315 315 314 313 313 313 317 320 321 322 321 320 320 316 316 314 317 318 316 313 317 317 320 320 321 323 328 329 330 331 331 332 334 333 333
320 320 320 321 323 323 322 319 317 317 317 309 312 316 316 318 317 316 317 316 316 314 314 313 313 318 320 321 322 322 321 320 323 322 319 316 318 317 319 319 323 323 323 322 321 321 324 329 331 331 332 334 333 334
317 315 318 320 323 322 322 320 317 317 318 310 316 318 317 318 318 319 318 317 315 315 315 315 315 317 320 321 322 323 321 319 321 320 319 321 319 321 319 322 323 325 322 324 325 326 326 330 331 332 331 332 334 335
310 312 319 321 322 321 322 320 318 318 315 311 317 319 321 320 319 316 314 314 313 314 314 313 315 314 320 321 321 320 320 320 322 320 324 321 319 323 324 325 328 332 332 332 331 331 331 331 332 333 334 334 334 336
310 312 315 321 322 322 322 320 318 318 311 313 318 318 316 314 314 317 317 316 315 314 315 315 315 315 321 320 319 322 319 319 324 326 326 326 322 323 328 330 332 332 333 333 333 334 334 335 335 336 336 336 335 335
312 317 320 319 321 320 321 320 318 317 310 310 314 314 313 314 317 317 318 318 317 320 320 318 321 320 323 324 321 321 322 322 325 325 326 329 325 327 326 326 326 329 329 331 332 333 333 333 333 333 335 336 335 334
316 318 320 319 318 319 321 319 318 315 310 313 315 316 317 316 311 319 321 320 320 322 324 323 321 324 324 324 322 319 323 323 322 328 329 329 326 326 327 328 328 329 329 329 329 331 330 331 332 331 330 334 335 334
313 317 319 320 320 320 319 318 316 312 311 315 318 312 320 320 319 318 318 320 323 324 324 324 323 322 323 322 318 322 320 319 325 329 330 325 323 323 325 326 327 327 326 327 327 327 329 327 327 327 327 328 334 335
313 317 319 319 320 320 318 316 314 311 312 316 317 314 319 321 322 323 324 324 324 324 324 324 321 322 318 321 319 320 322 325 327 328 324 322 323 323 324 324 324 325 327 327 326 325 324 325 322 323 326 330 330 334
316 317 319 320 319 318 315 315 314 312 315 316 317 319 321 320 321 323 323 324 325 324 323 323 319 320 320 319 323 325 325 327 323 320 319 318 319 320 321 323 323 324 324 324 326 327 326 327 326 326 327 329 331 334
315 318 319 319 318 317 317 315 312 313 315 318 320 321 321 321 321 321 322 325 324 323 320 318 322 324 317 319 322 321 323 319 317 317 318 318 318 318 321 322 324 324 324 324 323 326 327 326 326 325 325 328 333 335
315 318 319 318 318 317 317 314 313 315 316 316 317 318 321 323 322 324 325 324 324 323 322 320 321 319 321 323 323 318 317 317 318 318 319 320 319 319 319 321 322 322 323 323 326 326 325 325 324 326 327 332 335 334
316 317 317 318 317 317 312 315 316 317 319 320 320 321 321 323 324 324 323 324 324 321 322 319 319 318 318 317 317 318 318 319 319 320 320 319 319 319 320 322 322 321 321 322 323 324 324 324 327 327 329 332 334 332
318 317 316 316 316 316 312 314 319 320 321 323 323 323 323 325 325 325 324 323 322 321 318 314 313 316 317 318 318 318 318 319 320 321 320 319 319 320 320 321 321 322 322 321 321 322 325 326 327 327 329 331 333 333
317 318 317 316 316 316 314 317 320 322 324 324 325 325 325 325 325 324 323 322 320 319 315 317 317 318 318 318 318 317 317 316 316 317 317 318 318 319 319 319 320 320 322 323 323 323 326 326 325 327 328 332 329 329
316 316 314 314 313 313 312 313 316 318 318 320 321 321 325 324 323 323 322 322 320 318 317 317 317 317 317 315 316 317 317 315 315 316 316 316 318 318 318 317 318 319 322 323 325 326 325 325 326 328 330 331 330 330
316 316 314 315 316 317 317 317 318 320 317 319 323 322 322 323 322 322 322 322 319 316 316 316 317 316 316 316 317 317 317 318 317 317 318 318 317 317 316 319 321 321 321 322 326 326 325 326 327 327 327 326 326 326
314 313 314 315 316 316 319 319 319 320 321 320 320 322 321 323 323 322 320 321 319 315 315 316 317 315 315 316 316 316 317 316 317 318 318 319 318 318 316 318 320 323 321 323 324 324 322 323 325 325 324 323 323 324
315 315 316 315 319 319 320 319 319 320 324 323 322 322 323 323 320 319 320 321 321 318 315 314 314 315 315 316 316 319 319 320 320 320 316 314 315 316 317 316 319 320 323 324 323 322 322 322 321 322 322 322 323 323
314 317 314 317 318 320 321 323 319 322 323 323 323 322 323 321 322 321 318 321 321 320 318 317 316 316 317 318 320 320 321 318 317 316 313 311 312 315 316 317 319 319 319 320 321 321 321 322 322 322 322 322 322 322
313 318 318 317 317 318 318 322 322 323 322 323 322 320 320 323 322 319 322 321 321 321 320 319 319 320 321 321 321 320 320 318 318 319 317 313 312 313 314 315 317 319 320 320 319 318 320 320 320 322 321 322 321 321
314 316 318 319 320 320 320 323 323 323 319 321 320 322 325 322 320 321 321 320 320 319 319 320 321 323 322 322 321 320 319 318 318 319 319 314 312 312 313 315 317 318 318 318 319 319 319 319 321 321 320 319 319 320
314 316 317 317 319 320 321 320 320 321 322 323 321 322 322 324 325 325 322 320 320 320 322 323 324 323 319 322 321 321 319 318 319 319 314 316 313 311 312 312 314 316 316 317 318 319 318 319 320 321 321 320 319 319
315 317 317 319 319 319 322 323 323 324 323 323 322 322 322 323 322 323 324 322 322 322 322 322 322 320 321 321 320 318 319 319 318 318 314 313 313 312 312 311 310 312 315 317 318 318 318 318 318 317 317 317 317 317
317 317 318 319 319 321 320 322 323 323 323 323 323 323 323 324 324 324 324 323 322 322 322 321 321 321 321 320 319 318 318 318 319 319 314 314 313 312 312 311 310 310 309 310 312 312 312 313 314 312 312 312 311 311
317 318 319 320 321 323 323 323 323 323 321 323 325 325 325 325 324 324 323 323 322 322 322 321 321 321 321 321 321 321 320 320 319 318 315 315 314 313 313 312 311 311 312 312 311 308 306 306 308 308 309 308 308 307
320 320 320 321 323 323 323 323 323 323 323 323 322 322 324 324 323 323 323 322 322 322 322 321 321 321 321 320 320 320 320 318 317 317 316 314 314 313 312 312 311 312 312 311 311 311 310 309 308 307 306 306 305 305
Wind_Speed
11 11 11 12 12 13 15 17 17 18 18 18 18 18 18 16 13 11 10 9 7 7 22 22 11 6 6 5 3 6 11 3 3 1 2 3 3 4 2 4 6 7 6 4 2 2 6 6 2 5 6 15 19 23
13 13 12 13 14 14 14 15 16 17 18 19 19 19 18 16 16 15 10 10 15 15 17 31 35 36 34 35 28 8 6 2 4 2 0 0 2 0 2 3 1 2 6 5 8 6 6 10 12 16 18 25 27 23
12 14 13 13 12 14 15 14 15 17 19 20 21 21 19 19 18 18 16 13 12 8 17 8 5 2 8 11 13 12 7 11 9 8 5 3 4 4 3 5 2 2 3 3 2 7 12 22 23 23 27 19 18 24
13 13 14 13 13 13 14 16 14 16 18 20 22 19 20 19 18 15 13 9 8 4 4 5 5 2 6 12 13 23 25 13 15 9 4 2 3 8 4 3 4 4 6 4 6 9 19 25 24 22 13 21 20 19
17 15 16 15 14 14 14 15 16 17 18 21 21 20 20 18 14 10 5 6 3 3 4 14 12 2 9 13 17 14 26 30 22 4 2 4 5 2 1 2 3 8 7 5 7 19 13 17 20 14 13 17 13 14
18 17 17 18 16 15 15 16 16 17 18 20 20 19 17 11 10 1 1 3 6 6 5 5 9 4 16 15 19 7 5 20 17 8 7 8 11 8 3 4 8 21 25 24 15 25 20 20 22 18 12 13 12 12
17 17 19 19 18 17 16 16 16 16 18 20 17 16 12 6 5 3 3 3 2 1 3 7 9 6 12 16 17 6 8 8 12 8 8 8 9 12 3 7 8 19 29 31 27 29 26 24 4 10 5 4 7 13
16 16 17 18 19 18 17 16 15 15 18 17 16 11 9 4 3 2 4 4 4 3 3 2 5 10 6 7 8 8 6 5 7 6 4 6 5 6 6 9 19 27 33 35 32 33 33 30 26 20 12 10 11 14
18 18 16 17 17 17 16 15 14 15 17 16 12 10 4 1 2 5 8 6 5 4 3 2 2 4 8 7 7 5 3 3 5 2 3 3 4 5 7 15 18 17 17 20 22 22 24 22 21 17 14 13 15 11
17 17 15 16 17 15 15 15 14 15 15 12 9 1 1 1 8 12 1 1 2 4 5 5 5 4 5 4 4 5 2 2 3 3 13 2 4 18 20 12 11 13 13 12 9 4 8 13 12 12 10 12 8 7
16 16 18 17 15 14 13 15 13 14 11 5 2 2 3 6 4 2 2 3 3 3 7 8 11 4 8 2 3 3 3 2 3 2 1 3 4 5 5 3 1 4 9 13 14 8 1 3 3 2 5 7 8 4
15 14 14 15 14 12 14 14 12 11 9 8 8 12 6 2 2 2 3 1 4 4 5 6 7 9 6 4 2 2 3 2 5 2 2 3 4 18 8 6 7 9 9 12 18 14 8 7 8 6 4 5 5 6
13 11 11 12 12 11 15 13 11 9 11 7 2 2 2 2 1 4 4 3 3 4 6 6 4 3 3 4 3 1 3 5 5 2 2 4 14 24 22 12 12 13 12 10 11 11 10 9 7 7 8 4 2 5
13 14 14 12 13 12 12 11 8 7 4 2 3 2 4 4 5 5 5 2 6 7 10 11 5 3 2 1 1 2 4 3 4 4 4 4 23 29 27 22 19 17 14 13 13 11 10 11 8 8 10 11 6 5
12 12 13 12 10 10 9 7 6 6 4 3 4 4 6 12 11 9 9 9 9 6 9 8 2 1 2 2 2 2 3 2 3 4 3 15 20 18 21 23 21 19 16 14 13 15 12 12 12 11 11 13 12 9
11 11 11 9 8 8 7 6 6 4 4 4 7 4 9 3 7 4 5 8 6 4 4 1 2 2 3 1 2 4 5 3 1 3 19 25 23 19 20 19 19 17 17 16 13 13 13 12 13 15 18 16 13 12
9 9 6 8 8 6 5 6 3 4 4 5 8 13 19 19 16 21 15 9 5 1 1 2 1 3 2 2 3 2 2 1 16 23 26 26 23 22 17 17 17 18 18 18 16 11 13 12 14 18 19 14 11 10
11 8 10 9 8 5 6 5 4 5 7 12 7 9 10 11 16 13 8 6 0 1 2 3 2 1 3 3 4 3 17 23 24 24 27 28 24 22 18 18 17 18 18 16 14 13 14 15 18 17 15 9 5 7
10 11 11 11 8 3 3 5 6 5 13 11 14 19 17 13 11 7 5 5 6 3 3 2 1 1 3 4 10 19 22 23 26 29 23 18 16 14 16 17 19 20 19 18 16 17 17 15 13 12 9 6 7 11
7 10 13 11 8 4 4 4 5 6 6 4 9 9 6 5 15 11 10 8 8 2 1 2 3 3 4 15 18 20 20 17 15 15 14 11 8 8 12 14 16 16 18 19 17 15 14 13 14 10 5 7 11 17
7 7 11 13 10 8 5 4 6 7 7 6 9 4 3 12 5 6 8 10 4 3 3 3 2 3 6 9 12 16 16 22 28 26 21 19 21 18 13 11 12 14 12 10 12 14 13 13 14 7 5 9 12 11
8 8 7 9 6 5 7 8 7 7 6 8 13 8 5 6 6 8 9 4 4 4 4 8 10 10 9 14 12 10 12 13 18 19 26 32 30 27 27 19 13 9 9 9 6 7 8 10 6 1 3 5 9 10
9 10 4 5 5 6 6 6 5 5 3 4 2 2 2 4 5 13 4 6 6 12 11 13 16 11 12 8 6 4 5 4 8 13 15 17 21 34 40 25 8 2 5 12 9 7 5 4 7 8 11 14 15 14
11 7 5 6 9 4 4 5 6 5 4 2 1 2 2 4 12 2 2 5 11 20 21 19 18 17 15 12 9 7 12 18 23 27 24 24 23 20 38 36 28 10 5 15 13 13 11 10 10 11 15 16 17 22
4 6 4 6 7 5 4 3 4 3 3 3 4 3 3 7 3 3 3 5 19 27 26 22 19 18 16 14 16 15 12 18 19 21 22 18 13 10 16 37 40 33 17 15 17 18 15 12 11 11 12 13 13 17
3 7 8 5 4 5 4 3 4 3 3 3 5 2 5 3 2 4 3 7 16 24 30 28 24 22 20 18 16 13 11 8 12 14 18 19 13 11 11 6 17 28 35 30 27 27 23 18 16 15 13 10 12 13
3 5 8 9 6 4 4 3 2 3 3 4 2 3 3 3 4 4 5 7 12 16 18 20 19 17 15 11 9 7 2 3 9 12 10 14 13 12 14 13 9 9 9 12 20 23 20 17 13 14 15 20 25 28
7 4 5 4 7 8 3 2 4 6 4 4 0 3 4 6 4 1 2 4 10 14 13 12 12 9 10 7 6 10 8 7 7 11 3 6 11 12 15 15 15 15 15 14 12 11 11 10 13 18 24 32 25 16
6 6 5 5 6 6 7 7 6 7 6 6 4 2 3 2 1 2 3 8 15 13 12 9 14 11 13 9 8 10 10 9 7 3 1 1 2 8 11 13 15 13 12 12 11 12 13 15 16 20 22 21 17 15
7 12 6 5 4 5 8 9 2 1 4 4 3 4 9 14 12 7 5 11 13 15 13 5 8 10 9 7 6 9 10 8 4 3 8 7 8 10 7 8 11 11 14 17 20 21 20 20 21 23 23 22 22 22
3 9 6 5 5 12 20 16 15 11 12 9 10 9 5 2 2 3 8 11 11 16 12 12 9 9 9 10 13 13 13 10 7 6 10 10 11 12 10 10 14 19 16 11 11 12 14 15 17 20 21 20 18 18
9 13 7 4 4 3 4 6 3 5 7 8 7 7 3 3 3 4 8 14 15 15 10 16 16 12 9 7 8 9 9 6 8 16 16 12 11 11 10 8 8 11 15 17 18 18 15 13 12 12 13 12 13 13
10 12 12 4 4 4 6 4 2 4 4 4 6 8 8 6 5 4 9 14 12 15 17 16 14 11 11 10 6 9 11 11 11 13 14 13 11 12 12 10 8 6 6 10 12 13 15 16 15 13 13 12 12 12
Wind_Direction
317 296 297 310 325 335 341 345 345 346 345 343 342 341 339 338 338 337 309 284 267 256 282 282 264 221 228 239 189 327 345 303 352 87 156 248 211 231 154 204 188 172 154 201 103 193 280 180 173 162 230 305 308 305
327 329 324 321 324 327 329 338 341 342 343 342 341 339 337 337 333 328 320 291 282 266 269 284 282 276 271 269 267 249 231 281 254 94 299 299 297 357 176 233 79 201 186 188 176 211 232 204 230 270 290 292 293 290
313 326 324 322 320 323 324 327 333 335 338 340 340 337 335 334 333 326 319 309 301 287 297 289 263 239 325 276 269 214 224 219 226 228 191 204 240 139 195 241 215 237 158 203 76 255 249 273 280 276 292 279 287 283
290 303 317 321 318 316 319 326 326 329 331 335 339 336 333 333 331 326 323 315 303 302 301 273 273 34 350 347 294 244 249 252 246 221 192 190 203 196 211 218 183 202 143 194 258 288 284 285 283 284 274 304 291 293
276 287 299 311 314 316 318 322 324 325 326 332 335 332 332 332 332 330 23 38 63 360 291 291 307 105 8 356 346 277 236 242 244 236 160 217 224 181 238 89 230 188 192 173 242 259 252 275 303 273 293 300 296 322
264 270 286 298 306 312 315 319 321 322 323 326 330 330 332 338 344 77 77 26 20 8 328 312 311 284 354 346 331 310 248 244 222 204 212 214 225 194 192 219 243 241 247 254 252 283 279 293 312 294 288 299 289 303
258 266 274 282 293 303 311 314 319 319 320 324 328 328 332 340 16 44 28 324 302 287 310 302 304 308 333 332 332 308 262 239 222 213 212 204 209 196 170 237 235 251 271 274 274 274 278 284 326 345 285 284 339 323
265 266 273 272 282 295 307 310 316 317 321 322 325 321 321 299 323 353 347 317 285 271 284 286 280 320 320 310 321 299 282 268 233 253 231 188 204 187 234 241 263 266 264 260 262 267 267 274 286 285 290 270 311 314
269 271 266 267 275 289 304 308 313 317 321 322 319 319 290 253 319 313 311 284 222 223 275 261 247 270 313 306 293 290 295 301 310 283 278 159 199 212 216 228 255 276 257 265 270 276 268 270 282 294 294 287 285 311
271 267 265 266 269 284 304 308 310 321 324 322 319 321 143 348 311 312 271 201 191 203 224 246 232 259 292 306 297 310 295 275 318 290 318 215 255 231 231 231 278 306 326 308 228 259 261 258 300 321 316 309 287 312
271 270 260 269 259 275 300 308 306 324 334 329 292 257 289 307 298 258 247 211 187 246 217 238 225 246 281 209 247 234 292 283 293 266 272 307 301 342 49 82 68 29 77 85 88 82 154 55 53 352 313 297 285 284
269 273 271 258 259 277 296 304 298 318 319 303 280 284 280 230 222 248 235 241 200 245 213 211 253 229 270 260 257 257 262 346 256 154 221 306 338 1 14 49 66 71 60 67 60 65 83 68 46 29 345 335 272 274
262 271 275 261 261 269 280 294 292 306 317 305 231 239 217 170 7 207 215 242 248 220 232 234 274 252 248 251 260 333 271 239 312 230 144 21 346 5 14 29 43 57 65 72 77 64 50 47 30 11 355 336 347 232
266 265 262 266 247 263 275 273 287 303 305 249 213 280 207 215 235 205 204 222 266 238 269 289 268 221 237 283 227 265 253 321 298 12 44 24 357 2 3 5 10 14 18 18 23 24 20 18 354 327 325 319 292 263
266 271 268 258 258 251 262 257 277 284 240 238 213 230 221 233 249 262 266 253 256 283 300 299 299 298 300 307 222 318 292 257 17 12 8 333 349 351 347 341 344 348 352 355 356 354 350 339 341 326 315 309 297 270
268 271 278 262 256 223 208 249 276 224 232 233 232 262 251 263 280 287 308 238 247 304 326 8 16 19 285 226 286 252 327 28 338 279 306 320 322 330 336 329 320 327 326 330 329 331 336 328 324 319 314 319 301 256
254 266 250 225 213 197 230 278 250 217 237 239 244 242 259 282 276 283 282 247 239 216 154 116 341 237 299 275 250 330 287 279 298 297 304 309 308 305 311 318 312 317 315 314 315 305 315 318 316 321 320 310 286 246
254 263 230 209 207 222 267 219 223 234 243 243 246 264 243 255 276 285 235 240 274 209 215 200 154 351 263 279 306 320 310 312 308 299 304 310 305 298 290 301 295 294 303 306 298 297 300 309 315 323 318 300 273 221
259 248 217 209 199 213 241 216 224 252 242 254 262 268 273 275 270 242 116 2 238 209 193 175 123 197 279 284 304 307 304 301 302 311 313 321 319 304 295 286 281 282 280 283 288 289 295 298 299 310 311 272 225 200
254 225 209 212 203 221 245 227 225 255 262 262 272 266 250 242 162 179 251 211 194 192 181 154 193 219 279 314 323 316 324 346 353 351 1 17 357 317 295 290 285 279 273 268 271 276 281 289 296 294 273 229 217 187
249 246 218 221 246 227 266 243 238 247 276 265 280 268 246 177 201 206 168 178 165 217 211 174 151 82 78 76 65 54 61 64 50 44 30 27 24 15 351 328 300 280 261 259 257 251 255 275 295 281 244 207 189 199
205 197 171 188 206 229 257 236 244 291 274 266 287 263 191 195 198 191 170 169 208 210 185 161 160 149 129 110 100 77 73 75 54 39 36 31 24 8 3 1 346 313 269 234 245 233 246 269 272 235 209 194 207 210
215 204 188 202 221 224 254 224 234 242 232 251 251 230 210 190 173 150 169 192 182 153 141 164 177 168 175 198 210 262 315 329 331 327 337 341 6 11 13 19 21 265 221 190 185 188 210 155 149 148 142 134 133 140
171 180 210 210 211 252 223 224 221 248 235 236 255 266 219 163 158 170 216 211 190 174 166 166 176 179 188 207 223 262 307 319 323 327 330 326 343 360 21 23 46 76 121 162 176 159 144 130 133 146 148 140 135 132
180 212 210 243 214 222 227 231 215 240 251 209 191 256 180 161 164 204 223 229 192 190 186 180 188 201 221 260 286 311 329 325 334 343 4 7 15 26 31 44 46 55 101 127 144 140 128 132 156 163 151 157 131 130
235 205 196 215 221 204 222 248 195 233 242 223 224 187 157 123 158 241 233 217 199 200 202 204 216 225 242 262 288 318 341 10 5 9 16 14 19 24 22 15 52 59 59 68 94 86 103 105 120 128 142 144 153 142
249 232 222 227 251 279 276 200 36 44 289 228 222 173 157 187 231 249 229 217 203 199 208 213 223 236 258 285 294 289 340 353 355 350 16 22 44 58 53 48 47 60 71 67 76 80 82 110 101 95 86 113 127 133
242 254 213 203 217 232 246 254 168 202 240 256 357 199 195 190 227 260 275 200 177 182 197 216 232 250 260 273 276 233 274 289 304 317 335 30 53 76 67 59 74 84 92 94 94 97 94 102 118 131 129 129 130 137
235 230 222 249 233 243 223 205 214 222 216 195 168 240 250 215 323 311 219 188 183 180 190 217 231 218 240 228 214 272 243 240 270 223 170 304 114 93 82 63 67 98 106 110 106 111 114 111 116 128 143 156 163 146
243 219 213 236 208 222 223 234 265 333 256 224 199 262 262 275 266 255 208 201 195 196 194 209 198 203 220 228 228 189 196 205 135 167 179 157 144 151 109 49 57 82 100 107 110 114 113 109 109 112 117 124 127 129
252 179 208 229 247 243 240 243 276 270 223 226 238 251 266 291 337 288 217 205 206 189 201 209 206 192 188 191 188 188 186 198 244 214 178 137 125 124 117 97 89 89 88 101 107 115 120 123 123 123 125 124 124 121
199 201 203 214 230 193 119 161 177 198 197 207 225 230 210 217 235 254 221 208 199 200 209 193 190 178 169 185 210 224 237 274 205 202 190 178 158 155 149 139 123 111 100 94 90 92 92 96 111 121 125 121 115 109
224 228 221 240 186 161 174 160 251 287 257 239 232 217 209 206 227 229 202 193 202 208 194 199 207 214 201 208 201 222 219 202 205 190 188 194 186 182 187 185 176 162 139 126 121 114 107 104 101 104 108 109 109 102